Find Leasat 4

NORAD ID: 15995 Int'l Des: 1985-076 Owner: HCI Country: US operational
HEOCIRCULAR

Live Position

Loading 3D Globe...

About Leasat 4

Description loading...

Upcoming Passes

Passes for default location (London). Set your location on the main map for personalized predictions.

Altitude History

Loading altitude history...

Two-Line Element Set

1 15995U 85076D 26107.16611916 -.00000040 00000-0 00000-0 0 9997
2 15995 10.1453 330.9123 0007899 341.0854 16.7564 0.97798202117534
Epoch: Apr 17, 2026 • Age: 14 hours

Current Status

Altitude 36521.5 km
Velocity 3.05 km/s
Sub-Earth Point -3.18°S, 58.27°E
Launch Date Aug 27, 1985
Age 40.6 years
Type other

Technical Details

Classification Payload
Mass 3231.00 kg
Dry Mass 1230.00 kg
Total Mass 3231.00 kg
Length 4.00 m
Diameter 4.30 m
Span 6.20 m
Shape Cyl + Ant
Manufacturer HSES
Bus Type HS-381
Phase Status In Orbit
Owner/State HCI/US

Most Searched